Immenstadt

Germany     47˚34′00″N   10˚13′00″E
temp.,
°C
wind,
m/s
gust,
m/s
humid.,
%
clouds,
%
prec.,
mm/h
press.,
hPa
HPBL,
m
29 november, sun
sun2901:00ese126395 0.0 101923
04:00−1˚ese1163100 0.0 102022
07:00−2˚ene117189 0.0 102030
10:00nne11680 0.0 1021149
13:00+2˚n21650 0.0 1020262
16:00−2˚nne12840 0.0 1021108
19:00−3˚ene11910 0.0 102326
22:00−3˚ene11840 0.0 102421
30 november, mon
mon3001:00−3˚e01790 0.0 102421
04:00−3˚sse01700 0.0 102421
07:00−3˚s00640 0.0 102521
10:00wnw00580 0.0 1026106
13:00+3˚nnw11510 0.0 1024245
16:00−2˚wnw01770 0.0 102421
19:00−2˚ssw22670 0.0 102521
22:00−2˚ssw22580 0.0 102423
1 december, tue
tue101:00−2˚ssw22520 0.0 102323
04:00−1˚ssw234566 0.0 102129
07:00−1˚sw124982 0.1 101939
10:00s2483100 0.5 1016196
13:00+1˚wsw1197100 2.4 1015123
16:00−1˚wnw1298100 2.5 1015134
19:00−2˚wnw0110099 3.6 101730
22:00−1˚n1198100 0.2 101872
2 december, wed
wed201:00−2˚ne2298100 1.1 1018156
04:00−2˚e1197100 0.3 101665
07:00−4˚se119491 0.3 101628
10:00−2˚ne118789 0.1 1015242
13:00−1˚nne118494 0.1 1014353
16:00−2˚n1296100 0.1 1013142
19:00−3˚nne1197100 0.1 1014118
22:00−5˚ssw019886 0.1 101527
3 december, thu
thu301:00−3˚wnw119393 0.1 1014102
04:00−3˚nw1194100 0.1 1013113
07:00−4˚nw1195100 0.1 1012128
10:00−3˚n1190100 0.1 1010230
13:00−2˚n118799 0.1 1007273
16:00−3˚nne119499 0.1 1005179
19:00−4˚ese019699 0.1 100521
22:00−3˚sse118690 0.0 100222